Regional Weather Roundup
Issued by NWS Jackson, KY

Home | Current Version | Previous Version | Graphics & Text | Print | Product List | Glossary On
Versions: 1 2 3 4 5 6 7 8 9 10 11 12 13 14 15 16 17 18 19 20 21 22 23 24 25 26 27 28 29 30 31 32 33 34 35 36 37 38 39 40 41 42 43 44 45 46 47 48 49 50
259
ASUS43 KJKL 270510
RWRJKL

EAST KENTUCKY HOURLY WEATHER ROUNDUP
NATIONAL WEATHER SERVICE JACKSON KY
100 AM EDT MON MAR 27 2017

NOTE: "FAIR" INDICATES FEW OR NO CLOUDS BELOW 12,000 FEET WITH
NO SIGNIFICANT WEATHER AND/OR OBSTRUCTIONS TO VISIBILITY.

* THESE REPORTS ARE NOT UNDER NWS QUALITY CONTROL AND MAY NOT
  REPORT WEATHER SUCH AS PRECIPITATION AND FOG.

KYZ079-080-083-085-087-088-110-112-115-119-120-270600
...EASTERN KENTUCKY...

CITY           SKY/WX    TMP DP  RH WIND       PRES   REMARKS
JACKSON        PTCLDY    59  54  83 S5        30.01S
LONDON         PTCLDY    60  53  77 SW5       30.02F
SOMERSET*      CLOUDY    59  50  72 CALM      30.03S
MONTICELLO*    PTCLDY    61  52  72 W15       30.03F
WILLIAMSBURG*  PTCLDY    61  55  82 SW3       30.03S
MIDDLESBORO*   PTCLDY    53  52  99 CALM      30.05S
HARLAN APT*    PTCLDY    61  50  67 CALM      30.04F
PIKE CO APT*   CLOUDY    57  57 100 S6        30.02F
BIG SANDY APT* PTCLDY    60  56  86 SW5       30.02S
MOREHEAD APT*  CLOUDY    57  55  94 NW5       30.02R
ASHLAND*       CLOUDY    55  54  94 E3        29.97S VSB 1
$$

KYZ035-036-041-042-044-050-067-078-099-270600
...CENTRAL KENTUCKY...

CITY           SKY/WX    TMP DP  RH WIND       PRES   REMARKS
MT STERLING*   LGT RAIN  59  55  88 NW5       30.02R
FLEMING/MASON* CLOUDY    56  55  95 W6        30.01S
DANVILLE*      DRIZZLE   59  54  82 W6        30.02S
LEXINGTON      CLOUDY    58  53  84 CALM      30.00S
FRANKFORT      PTCLDY    56  50  80 CALM      29.99S
LOUISVILLE     MOCLDY    57  47  69 CALM      29.98F
LEBANON*         N/A     57  54  88 CALM      30.01S
GLASGOW*       PTCLDY    57  54  90 CALM      30.00S
BOWLING GREEN  CLOUDY    54  51  90 CALM      29.99F
$$

KYZ091>093-OHZ055-061-077-WVZ005-015-034-035-042-270600
...SOUTHERN OHIO/WEST VIRGINIA...

CITY           SKY/WX    TMP DP  RH WIND       PRES   REMARKS
COVINGTON      CLOUDY    54  52  93 SW6       29.97F
COLUMBUS       MOCLDY    55  54  96 S7        29.95S
DAYTON         PTCLDY    53  51  93 SW10      29.95F
WILMINGTON     MOCLDY    53  53 100 SW6       29.96F
HUNTINGTON     CLOUDY    59  55  87 S8        29.98S
CHARLESTON     CLOUDY    59  56  89 VRB3      30.00S
PINEVILLE*     CLOUDY    55  52  90 MISG      30.10S FOG
BECKLEY        CLOUDY    56  52  86 S8        30.07R
LOGAN CO APT*  CLOUDY    59  57  94 CALM      30.04S
$$

VAZ002-007-008-TNZ017-027-036-066-071-270600
...SOUTHWEST VIRGINIA/EAST TENNESSEE...

CITY           SKY/WX    TMP DP  RH WIND       PRES   REMARKS
WISE*          PTCLDY    59  50  72 SW10      30.09S
JONESVILLE*      N/A     54  54 100 CALM      30.07F
ABINGDON*      MOCLDY    59  51  74 NW5       30.08S
BRISTOL        MOCLDY    59  52  77 CALM      30.06F
MORRISTOWN*    CLOUDY    59  55  88 CALM      30.05S
SEVIERVILLE*   MOCLDY    57  52  82 CALM      30.04F
KNOXVILLE      CLOUDY    60  52  74 S5        30.04S
LAFOLLETTE*    CLEAR     63  50  63 CALM      30.06F
OAK RIDGE      CLOUDY    58  52  80 CALM      30.05S
CROSSVILLE     CLEAR     55  49  80 CALM      30.07S
NASHVILLE      CLOUDY    60  54  80 S6        29.99F
$$

...KEY TO REMARKS...
VSB - VISIBILITY IN MILES
WCI - WIND CHILL INDEX
HX  - HEAT INDEX

$$




USA.gov is the U.S. government's official web portal to all federal, state and local government web resources and services.